Temp
53 53 54 54 54 54 54 54 54 53 53 53 53 53 53 52 52 47 38 41 39 33 31 33 32 28 30 29 26 25 26 27 23 19 19 22 21 22 21 27 28 25 24 25 23 26 20 37 35 33 38 35 36 38
53 53 53 54 54 54 54 54 53 53 53 53 53 53 53 51 51 50 38 42 43 33 32 39 37 37 35 31 28 28 27 23 28 21 18 19 16 20 21 22 30 24 31 26 29 29 37 38 36 38 39 38 34 34
53 52 53 53 53 53 53 53 53 53 53 52 52 52 52 51 51 49 39 39 37 30 30 32 32 36 40 37 38 29 28 33 30 29 24 20 13 23 14 19 23 29 31 27 30 34 34 37 37 37 36 35 35 36
52 52 52 53 53 53 53 53 53 52 52 52 52 52 51 51 50 47 39 39 38 33 29 27 38 32 38 37 36 37 34 34 32 28 22 19 16 26 22 24 22 26 28 23 25 32 34 36 36 39 36 36 35 33
51 51 52 52 52 52 53 52 52 52 52 51 51 51 51 50 49 43 39 39 39 35 28 24 32 34 37 36 35 36 36 34 32 24 19 18 24 21 22 21 19 26 26 26 26 34 35 34 31 35 35 34 34 33
51 51 52 52 52 52 52 52 51 51 51 51 51 51 50 48 47 41 30 37 39 39 28 19 29 31 33 33 32 31 31 27 28 28 22 22 26 21 12 13 28 29 32 34 33 29 33 30 29 30 29 28 28 29
51 51 51 51 51 51 51 51 51 51 50 50 50 50 48 48 40 32 32 35 41 37 28 18 18 27 32 32 31 30 30 27 28 19 19 25 23 21 22 10 28 29 30 30 28 31 30 29 29 30 29 27 24 22
50 50 51 51 51 51 51 51 51 50 50 50 49 48 47 46 42 34 34 40 38 31 29 17 14 20 29 29 26 30 28 24 22 26 25 23 23 22 17 20 22 22 22 22 24 23 23 22 20 19 18 19 18 18
50 50 50 50 50 50 50 50 50 50 49 48 47 47 40 33 31 30 41 39 34 31 23 20 16 13 24 26 28 28 28 23 20 21 23 18 13 16 19 18 18 17 20 18 11 10 10 14 14 13 14 15 19 17
49 50 50 50 50 49 49 50 49 49 48 47 41 33 26 31 41 39 32 29 28 25 23 21 18 15 26 28 26 26 18 15 9 14 15 15 13 22 26 24 17 16 16 15 13 15 11 12 11 11 15 13 16 16
49 49 50 49 49 49 49 49 48 47 46 34 32 27 30 37 30 27 22 22 20 19 20 15 16 18 25 17 21 22 13 10 6 10 7 7 13 21 17 14 11 12 15 16 12 13 13 17 17 14 11 10 13 13
49 49 49 49 49 49 48 48 47 40 34 36 33 31 28 27 22 21 17 14 14 20 13 15 16 19 15 19 14 11 10 9 7 5 4 4 20 19 13 12 9 6 6 9 8 10 9 11 11 12 12 13 11 10
48 49 49 49 49 49 48 47 50 43 40 33 32 27 27 19 14 15 11 12 12 17 15 15 13 15 12 17 10 10 6 6 4 3 8 17 21 15 11 7 5 -1 1 5 6 6 5 6 5 8 9 7 11 10
48 48 48 48 48 48 47 48 45 47 35 33 29 21 23 12 17 19 21 22 19 19 20 18 13 13 11 10 9 7 2 3 3 3 12 18 18 14 7 5 6 5 2 5 6 5 4 5 5 3 5 7 13 13
48 48 48 47 48 48 47 45 49 35 34 31 31 22 19 18 12 11 15 17 16 25 21 15 11 16 6 5 5 2 2 2 9 15 19 21 16 9 8 6 5 5 3 6 7 7 6 3 6 6 3 5 6 8
48 48 47 48 48 47 45 46 37 33 32 30 21 16 10 17 8 9 18 16 19 23 21 21 10 7 4 7 4 8 11 13 18 16 18 14 13 8 7 6 6 6 8 7 7 7 6 6 8 6 4 5 5 6
47 38 47 47 47 45 45 35 34 32 32 27 18 14 19 22 22 19 22 20 26 24 21 19 14 12 7 3 6 13 15 21 22 20 16 14 12 10 6 4 4 4 6 7 7 8 8 5 6 9 15 10 8 10
43 45 47 47 44 41 35 32 32 31 28 20 19 16 16 21 21 21 21 24 24 22 24 22 18 13 12 11 15 23 23 22 19 17 16 14 12 9 10 10 7 9 10 10 10 9 8 10 13 14 13 11 9 8
44 46 47 44 41 34 32 30 32 28 17 19 19 19 18 17 18 25 24 27 24 25 21 17 14 11 16 20 23 23 21 19 20 16 14 10 10 10 11 12 10 12 13 10 11 12 12 12 13 13 12 12 15 13
42 46 44 43 44 32 27 26 30 23 18 19 19 19 19 20 21 24 25 21 23 22 15 14 18 21 24 26 26 24 21 18 17 16 16 13 10 11 13 15 17 15 13 10 10 14 11 11 10 12 14 15 15 12
39 44 42 43 33 32 29 27 22 23 20 17 18 21 18 19 20 20 21 23 18 16 17 22 25 28 26 24 22 21 20 22 23 23 22 17 14 17 14 13 14 15 16 16 17 13 16 17 16 16 15 14 12 11
35 42 37 35 30 29 25 25 21 22 21 20 19 20 19 17 17 18 22 14 15 19 22 25 27 25 18 17 19 18 20 19 16 16 18 22 18 18 19 17 19 18 20 21 20 21 17 15 15 15 13 10 9 8
39 36 32 31 25 23 19 25 20 22 16 20 17 17 15 15 16 23 15 16 18 21 23 20 19 17 21 15 15 13 13 17 18 18 17 17 18 19 23 21 20 25 19 16 18 19 15 13 13 10 10 8 8 6
37 32 27 25 22 17 21 18 17 16 18 18 18 7 7 13 18 15 15 12 16 16 18 14 18 18 18 20 18 17 15 17 17 16 20 26 26 19 23 18 16 17 19 19 18 16 13 11 10 8 8 8 5 3
28 24 23 18 21 19 16 14 10 11 9 8 6 5 7 13 8 8 9 14 14 19 20 20 22 18 20 17 17 16 14 23 23 21 17 23 21 20 16 14 15 15 16 20 17 13 10 9 9 8 5 4 2 -0
21 21 20 19 19 18 12 8 8 7 7 4 5 4 5 7 6 13 13 19 20 21 21 22 23 21 17 15 17 15 17 13 20 19 11 15 19 25 23 22 20 16 16 19 15 11 10 8 6 3 2 2 1 -1
19 19 19 20 21 17 13 12 12 12 3 3 4 2 7 7 11 17 4 1 3 -3 -3 -3 -1 11 15 6 1 0 2 5 11 12 5 5 5 7 15 22 23 14 13 14 14 13 9 6 4 2 0 -3 -4 -3
16 19 21 17 16 14 12 10 9 11 7 8 12 7 14 17 18 -0 -3 -1 -3 -4 -5 -6 -5 -4 1 1 4 4 3 4 5 7 7 6 3 4 7 9 11 12 9 9 9 9 8 5 3 1 -1 -2 -5 -9
12 9 22 16 10 9 5 10 8 -0 -1 19 11 8 7 -12 -12 -7 -6 -6 -5 -6 -5 -5 -4 -3 1 1 1 2 5 4 12 9 7 1 1 3 4 7 8 8 8 8 10 5 3 3 2 -0 -2 -3 -5 -6
4 0 12 2 7 2 -12 -13 -9 -12 -10 -10 -10 -9 -11 -11 -8 -3 -7 -10 -10 -9 -8 -7 -5 -3 -3 -0 -2 -1 -4 -7 -6 10 13 8 5 4 5 6 7 7 8 8 7 6 8 3 3 -1 -3 -5 -8 -11
-4 2 -6 -8 -10 -10 -9 -11 -13 -10 -9 -10 -10 -7 -11 -11 -6 -6 -12 -13 -13 -11 -7 -7 -6 -5 -2 -1 -1 2 -1 -5 -7 -5 2 6 6 4 3 3 4 4 4 3 2 1 0 -1 -2 -5 -7 -10 -13 -15
0 -7 -5 -6 -8 -5 -10 -10 -9 -7 -9 -8 -11 -12 -12 -6 -3 -12 -14 -14 -12 -11 -8 -8 -7 -7 -8 -7 -6 -4 -1 -5 -5 -2 1 4 2 1 2 2 3 3 3 2 1 -0 -2 -3 -6 -8 -11 -14 -18 -21
3 -6 -8 -4 -6 -12 -9 -4 -3 -8 -8 -11 -14 -15 -10 -4 -0 -14 -12 -14 -14 -12 -10 -11 -11 -10 -8 -6 -4 -2 -1 0 4 7 6 5 4 4 3 3 4 3 1 -0 -2 -3 -5 -8 -10 -13 -15 -18 -21 -25
MSLP
1005.46 1006.71 1007.87 1009.06 1010.14 1011.10 1012.28 1013.23 1014.15 1014.99 1015.84 1016.65 1017.37 1017.98 1018.63 1019.31 1020.06 1020.52 1021.83 1022.16 1022.39 1022.91 1024.08 1024.33 1024.74 1024.64 1024.51 1024.45 1024.68 1024.98 1025.08 1024.81 1024.84 1024.95 1025.21 1025.10 1025.14 1025.03 1024.28 1022.85 1021.86 1021.36 1021.10 1021.07 1021.09 1020.30 1018.87 1017.28 1017.74 1017.71 1017.18 1017.19 1017.23 1017.30
1004.58 1005.83 1007.02 1008.24 1009.38 1010.50 1011.70 1012.71 1013.66 1014.57 1015.45 1016.24 1017.01 1017.72 1018.32 1019.15 1019.86 1020.27 1021.64 1022.17 1022.19 1023.24 1024.58 1024.67 1025.04 1025.33 1025.38 1025.42 1025.27 1024.99 1025.11 1024.82 1024.50 1025.03 1025.46 1025.43 1025.40 1025.31 1024.67 1023.43 1022.17 1021.75 1020.44 1020.14 1019.58 1018.53 1017.36 1016.95 1016.84 1016.94 1017.30 1017.57 1017.75 1017.84
1003.62 1004.96 1006.18 1007.45 1008.64 1009.83 1011.10 1012.18 1013.15 1014.19 1015.10 1015.90 1016.68 1017.47 1018.14 1018.98 1019.73 1020.13 1021.22 1022.12 1022.73 1023.95 1025.02 1025.08 1025.20 1025.44 1025.40 1025.69 1025.78 1025.48 1025.10 1025.00 1024.94 1025.11 1025.10 1025.55 1025.71 1024.87 1024.70 1023.63 1022.47 1021.28 1020.57 1020.43 1019.74 1017.69 1017.52 1017.41 1017.18 1017.37 1017.70 1018.06 1018.25 1018.39
1002.66 1004.05 1005.37 1006.69 1007.94 1009.22 1010.49 1011.69 1012.73 1013.71 1014.79 1015.66 1016.44 1017.29 1018.02 1018.89 1019.67 1020.16 1021.01 1021.59 1022.15 1023.16 1024.02 1025.23 1025.31 1025.48 1025.54 1025.70 1025.74 1025.65 1025.55 1025.22 1025.44 1025.57 1025.73 1025.74 1025.57 1024.96 1024.45 1023.76 1023.12 1021.30 1020.88 1020.24 1019.36 1018.11 1017.80 1017.34 1017.28 1017.37 1017.88 1018.34 1018.71 1018.83
1001.70 1003.15 1004.44 1005.75 1007.17 1008.57 1009.94 1011.21 1012.30 1013.37 1014.50 1015.50 1016.32 1017.19 1018.02 1018.89 1019.74 1020.40 1021.16 1021.50 1021.69 1022.48 1023.85 1025.24 1025.58 1025.69 1025.62 1025.53 1025.61 1025.59 1025.46 1025.48 1025.74 1025.94 1026.23 1026.10 1025.61 1025.44 1024.81 1024.51 1022.54 1020.38 1019.51 1019.25 1018.46 1017.47 1017.21 1017.43 1017.43 1017.50 1018.21 1018.76 1019.16 1019.47
1000.83 1002.23 1003.64 1005.06 1006.43 1007.91 1009.39 1010.78 1011.85 1013.05 1014.34 1015.40 1016.32 1017.19 1018.05 1018.98 1019.58 1020.29 1021.60 1021.86 1021.66 1021.67 1023.18 1025.25 1025.97 1025.79 1025.93 1025.87 1025.92 1025.90 1025.92 1026.07 1026.17 1026.28 1026.13 1026.02 1025.99 1026.06 1025.58 1024.37 1019.63 1018.93 1018.31 1017.87 1017.87 1017.82 1017.84 1018.02 1018.19 1018.33 1018.76 1019.38 1019.76 1020.22
1000.15 1001.38 1002.64 1004.21 1005.73 1007.23 1008.82 1010.36 1011.59 1012.68 1014.25 1015.42 1016.46 1017.37 1018.40 1019.11 1019.79 1020.68 1021.40 1021.50 1021.49 1021.81 1022.79 1025.05 1025.87 1026.11 1025.93 1025.94 1026.01 1026.14 1026.25 1026.34 1026.44 1026.50 1026.46 1026.48 1026.13 1026.05 1025.56 1024.10 1019.39 1018.86 1018.88 1018.67 1018.69 1018.88 1019.09 1019.08 1019.46 1019.31 1019.67 1020.07 1020.42 1020.96
999.14 1000.40 1001.84 1003.46 1004.85 1006.79 1008.42 1009.99 1011.25 1012.72 1014.24 1015.48 1016.76 1017.92 1018.87 1019.42 1020.55 1021.07 1021.74 1021.55 1021.69 1022.07 1022.92 1024.72 1026.05 1026.30 1026.10 1025.79 1025.99 1026.30 1026.29 1026.51 1026.87 1026.94 1027.04 1026.91 1026.54 1026.31 1024.77 1020.71 1020.12 1020.05 1020.03 1019.82 1019.66 1019.94 1020.40 1020.53 1020.67 1021.05 1020.97 1021.31 1021.99 1022.50
998.44 999.81 1001.31 1002.87 1004.29 1006.39 1007.92 1009.80 1010.99 1012.72 1014.36 1015.74 1017.13 1018.31 1019.20 1020.14 1021.08 1021.53 1021.62 1021.68 1021.85 1022.63 1023.39 1024.68 1025.48 1026.30 1026.18 1026.12 1026.26 1026.54 1026.56 1027.03 1027.45 1027.51 1027.56 1027.72 1026.44 1025.08 1021.07 1020.74 1020.91 1020.55 1020.75 1020.67 1020.85 1021.07 1021.42 1021.61 1021.83 1022.00 1022.32 1022.62 1022.72 1023.25
998.01 999.36 1000.71 1002.41 1003.70 1005.93 1007.64 1009.54 1010.77 1012.71 1014.45 1016.00 1017.28 1018.53 1020.82 1021.47 1021.30 1021.49 1022.01 1022.21 1022.48 1022.82 1023.46 1024.57 1025.08 1026.14 1026.15 1026.38 1026.62 1027.00 1027.29 1027.82 1028.21 1028.52 1028.36 1027.85 1025.27 1021.44 1020.71 1020.40 1020.37 1020.72 1020.94 1021.28 1021.95 1022.40 1022.56 1022.84 1022.67 1022.64 1022.78 1022.95 1022.96 1023.27
997.52 998.90 1000.20 1001.83 1003.41 1005.51 1007.43 1009.16 1010.51 1012.59 1014.34 1015.81 1017.79 1020.05 1021.56 1021.59 1021.65 1022.05 1022.73 1023.44 1023.78 1024.18 1023.97 1024.99 1025.38 1026.10 1026.53 1026.64 1026.96 1027.69 1028.22 1028.71 1029.14 1029.28 1028.93 1027.27 1024.52 1021.28 1020.43 1020.63 1021.00 1021.38 1021.17 1021.67 1021.70 1021.70 1021.77 1021.80 1022.12 1022.56 1023.21 1023.11 1023.28 1023.55
997.09 998.38 1000.04 1001.45 1003.12 1004.91 1006.98 1008.70 1009.81 1011.30 1013.57 1014.76 1016.93 1019.81 1021.17 1021.67 1022.19 1022.83 1023.48 1024.61 1024.37 1023.83 1024.68 1025.10 1025.58 1025.97 1026.93 1026.83 1027.50 1028.61 1028.92 1029.58 1029.81 1029.44 1029.17 1026.79 1022.09 1020.40 1020.85 1021.27 1021.82 1022.24 1022.22 1022.46 1022.18 1022.55 1022.30 1022.27 1022.37 1022.50 1022.83 1023.24 1023.61 1023.99
996.42 997.90 999.66 1001.25 1002.89 1004.26 1006.47 1008.52 1009.17 1011.28 1012.87 1015.22 1016.65 1019.35 1020.20 1022.05 1022.58 1022.60 1023.02 1023.69 1023.53 1023.10 1024.24 1025.00 1025.90 1026.33 1027.43 1027.50 1028.36 1028.98 1029.92 1030.34 1029.76 1029.36 1027.26 1023.70 1021.07 1020.67 1021.19 1021.57 1022.36 1022.71 1022.71 1022.64 1022.87 1022.82 1022.91 1023.05 1023.07 1023.26 1023.57 1023.66 1023.70 1024.29
996.01 997.50 999.34 1001.07 1002.66 1003.91 1005.99 1008.01 1009.50 1010.20 1011.77 1014.50 1016.66 1019.29 1019.87 1020.66 1020.34 1020.27 1020.62 1020.77 1021.22 1021.82 1022.99 1024.10 1025.57 1026.26 1027.21 1028.05 1028.58 1029.35 1030.44 1030.03 1029.48 1028.20 1024.85 1021.79 1020.94 1021.30 1021.52 1022.10 1022.72 1023.22 1023.43 1023.37 1023.44 1023.36 1023.42 1023.44 1023.55 1023.71 1023.92 1023.62 1023.91 1024.19
995.43 997.12 998.99 1001.05 1002.39 1003.68 1005.80 1007.88 1009.06 1010.54 1012.39 1014.44 1015.51 1016.98 1018.05 1018.30 1019.21 1019.65 1020.00 1020.64 1021.25 1021.51 1022.26 1023.88 1025.12 1025.92 1027.29 1028.22 1028.82 1029.47 1029.63 1028.53 1026.95 1024.26 1021.82 1020.83 1020.93 1021.26 1021.70 1022.28 1022.66 1023.03 1023.51 1023.53 1023.18 1023.35 1023.64 1023.83 1023.95 1024.16 1024.27 1024.15 1024.32 1024.60
995.21 997.11 998.58 1000.72 1002.10 1003.71 1006.05 1007.80 1010.02 1011.89 1012.97 1013.73 1014.35 1015.93 1017.44 1018.13 1019.83 1020.03 1020.03 1020.88 1020.98 1021.33 1021.65 1022.46 1024.51 1025.94 1027.03 1027.34 1027.96 1027.16 1026.56 1024.79 1022.17 1021.26 1020.64 1021.03 1021.22 1021.52 1022.13 1022.59 1022.80 1022.78 1022.96 1023.15 1023.38 1023.67 1024.00 1024.18 1024.29 1024.51 1024.35 1024.35 1024.50 1024.60
994.97 995.84 998.09 1000.32 1002.01 1003.99 1005.95 1008.22 1010.43 1011.67 1012.35 1013.17 1014.31 1014.73 1015.20 1016.20 1017.28 1018.64 1019.11 1019.71 1020.16 1020.87 1021.24 1021.93 1023.66 1024.57 1025.66 1025.84 1025.47 1024.08 1022.74 1020.64 1019.97 1020.08 1020.21 1020.57 1021.13 1021.62 1022.27 1022.45 1022.60 1022.86 1023.14 1023.38 1023.65 1023.94 1024.25 1024.20 1024.07 1024.41 1024.57 1024.74 1024.74 1024.92
994.53 995.96 997.83 999.64 1002.17 1004.88 1006.80 1008.13 1009.28 1010.53 1011.61 1013.24 1013.94 1014.79 1015.16 1015.54 1016.65 1017.86 1018.39 1018.91 1019.59 1019.94 1020.25 1020.58 1021.58 1023.05 1023.38 1022.71 1021.78 1020.02 1019.37 1019.22 1019.39 1019.84 1020.27 1020.72 1021.02 1021.28 1021.61 1022.12 1022.47 1022.77 1023.18 1023.51 1023.69 1023.95 1024.14 1024.23 1024.21 1024.48 1024.69 1024.68 1024.90 1025.13
994.46 995.50 997.33 999.51 1001.09 1003.64 1006.26 1008.06 1008.31 1009.86 1012.18 1012.82 1013.61 1014.12 1014.91 1015.65 1016.09 1016.09 1017.13 1018.26 1018.59 1018.56 1019.38 1019.99 1020.60 1020.95 1020.49 1019.15 1018.47 1018.38 1018.43 1018.85 1019.13 1019.74 1020.42 1020.66 1020.88 1021.19 1021.56 1022.10 1022.58 1022.82 1023.14 1023.51 1023.67 1023.79 1023.94 1023.89 1023.87 1023.99 1024.26 1024.52 1025.04 1025.20
994.81 995.43 997.24 999.75 1000.66 1003.34 1005.86 1007.74 1008.33 1009.79 1011.80 1012.43 1013.37 1014.46 1015.17 1015.66 1016.39 1016.89 1017.39 1018.31 1018.71 1018.78 1019.43 1019.39 1018.88 1018.02 1017.46 1016.84 1016.87 1017.26 1017.72 1018.27 1018.87 1019.95 1020.51 1020.77 1020.92 1021.16 1021.48 1021.68 1022.02 1022.42 1022.81 1023.16 1023.44 1023.41 1023.78 1023.92 1023.96 1024.04 1024.22 1024.51 1024.87 1025.37
995.56 995.54 997.98 999.30 1001.64 1003.38 1005.26 1006.92 1008.44 1009.97 1011.62 1012.57 1013.45 1013.91 1015.56 1016.02 1016.67 1017.34 1017.80 1018.21 1018.61 1018.60 1018.23 1017.35 1016.69 1015.78 1015.78 1016.13 1016.42 1016.80 1017.38 1017.80 1018.45 1018.62 1018.83 1019.98 1020.29 1020.63 1021.24 1021.75 1021.81 1022.20 1022.31 1022.74 1023.08 1023.47 1023.66 1023.84 1023.77 1023.93 1024.29 1024.93 1025.30 1025.90
994.59 996.41 998.43 1000.12 1001.83 1003.80 1005.44 1006.61 1007.70 1009.69 1011.24 1012.37 1013.31 1014.07 1015.58 1016.27 1016.67 1017.27 1017.57 1018.23 1017.85 1016.65 1016.08 1015.50 1015.10 1015.37 1016.06 1016.69 1016.80 1016.92 1017.10 1017.44 1017.83 1018.08 1018.46 1018.83 1019.57 1020.20 1020.62 1020.87 1021.53 1021.92 1022.15 1022.25 1022.36 1022.82 1023.51 1023.92 1024.14 1024.50 1025.03 1025.78 1026.26 1026.71
995.38 996.75 998.16 999.63 1001.82 1004.10 1006.79 1007.05 1007.85 1009.81 1011.74 1013.09 1013.54 1014.72 1015.83 1015.92 1016.23 1016.77 1017.26 1016.73 1016.28 1015.28 1014.53 1014.74 1014.86 1015.01 1015.69 1016.08 1016.43 1017.01 1017.42 1017.60 1017.90 1017.85 1018.21 1018.55 1019.00 1019.26 1019.50 1020.18 1020.45 1021.09 1021.72 1022.19 1022.26 1022.79 1023.64 1024.32 1024.65 1025.23 1025.77 1026.25 1026.82 1027.58
996.20 996.89 998.17 999.99 1001.74 1004.61 1006.34 1007.34 1008.20 1009.93 1012.16 1013.20 1013.91 1015.54 1015.98 1016.15 1016.60 1016.74 1016.34 1016.00 1015.42 1014.79 1014.78 1014.94 1015.00 1015.70 1016.17 1016.56 1017.09 1017.00 1017.03 1017.34 1017.71 1017.83 1017.96 1018.21 1018.93 1019.50 1019.55 1020.29 1020.66 1020.97 1021.12 1021.99 1022.68 1023.36 1024.03 1024.73 1025.35 1025.99 1026.45 1026.79 1027.50 1028.39
996.07 997.70 998.51 1000.26 1001.62 1003.43 1005.50 1007.15 1008.53 1009.82 1012.02 1013.29 1014.57 1015.84 1016.19 1016.26 1016.53 1016.42 1015.81 1015.17 1015.17 1014.89 1014.84 1014.96 1015.22 1015.45 1015.97 1016.38 1016.86 1016.89 1016.62 1016.84 1017.54 1018.12 1018.05 1017.76 1018.74 1019.67 1020.47 1020.95 1021.22 1021.53 1021.59 1022.04 1022.74 1023.73 1024.73 1025.31 1025.82 1026.56 1027.01 1027.43 1028.17 1028.96
996.41 997.39 997.94 999.11 1001.05 1002.14 1004.56 1006.46 1007.96 1009.84 1011.23 1013.42 1014.69 1015.42 1015.76 1016.25 1016.71 1015.91 1015.13 1014.90 1014.78 1014.52 1014.88 1014.95 1014.90 1015.82 1016.34 1016.20 1017.01 1017.19 1016.91 1016.99 1017.06 1018.34 1018.94 1018.08 1018.50 1018.94 1019.82 1020.63 1021.47 1022.01 1021.84 1021.57 1022.36 1023.58 1024.64 1025.61 1026.52 1027.24 1027.68 1028.20 1028.74 1029.36
997.50 997.84 998.19 998.67 999.45 1001.21 1004.06 1005.86 1007.10 1008.53 1011.14 1012.59 1014.13 1015.34 1015.93 1016.73 1016.48 1015.37 1015.02 1015.62 1016.07 1016.35 1016.37 1016.13 1015.81 1015.77 1016.03 1016.67 1017.30 1017.43 1017.45 1017.48 1017.73 1018.69 1019.66 1019.67 1019.88 1019.68 1019.60 1020.16 1020.62 1021.16 1021.52 1021.90 1022.42 1023.16 1024.53 1025.91 1026.91 1027.58 1028.31 1028.94 1029.43 1029.97
999.17 998.40 998.05 999.49 1000.22 1001.39 1004.12 1006.34 1008.18 1009.35 1010.19 1010.87 1012.46 1014.53 1014.73 1015.15 1015.77 1016.13 1016.80 1017.38 1017.66 1017.47 1017.21 1017.01 1016.85 1016.76 1016.74 1017.07 1017.48 1018.09 1018.69 1018.85 1018.95 1019.38 1020.01 1020.86 1021.19 1021.11 1021.03 1021.07 1021.25 1021.69 1022.07 1022.50 1023.13 1023.95 1024.99 1025.97 1026.85 1027.84 1028.60 1029.38 1030.26 1030.67
1001.33 1000.31 999.38 1000.69 1002.29 1004.09 1006.48 1007.99 1008.77 1009.47 1009.82 1010.40 1011.98 1014.14 1015.34 1016.29 1017.39 1017.69 1017.94 1018.28 1018.61 1018.10 1017.60 1017.70 1018.00 1017.79 1017.76 1018.04 1018.41 1018.80 1018.98 1019.23 1019.15 1019.80 1020.13 1021.02 1021.90 1022.25 1021.84 1021.92 1022.41 1022.95 1023.44 1023.79 1024.42 1025.03 1025.71 1026.42 1027.26 1028.04 1029.06 1029.97 1030.85 1031.40
1003.82 1003.07 1002.17 1003.53 1005.29 1008.33 1010.17 1010.84 1011.11 1011.60 1011.46 1012.06 1013.16 1015.07 1016.55 1018.01 1018.59 1018.76 1018.68 1018.90 1018.98 1018.78 1018.77 1018.71 1018.76 1018.84 1018.95 1018.95 1019.65 1020.05 1020.12 1020.30 1019.91 1019.33 1019.65 1020.29 1021.33 1022.34 1022.49 1022.68 1023.15 1023.72 1024.10 1024.65 1025.44 1026.32 1026.99 1027.58 1028.31 1029.13 1030.12 1031.02 1031.77 1032.62
1005.97 1004.80 1005.38 1007.62 1009.80 1011.29 1011.73 1012.06 1012.38 1012.53 1012.82 1014.10 1014.49 1015.33 1017.48 1018.42 1019.02 1019.14 1019.48 1019.71 1019.64 1019.62 1019.19 1019.67 1019.82 1019.49 1019.59 1019.90 1019.98 1020.21 1020.72 1020.70 1020.71 1020.30 1019.65 1019.62 1020.67 1021.66 1022.42 1023.11 1023.82 1024.37 1024.86 1025.47 1026.19 1026.97 1027.74 1028.57 1029.44 1030.39 1031.32 1032.13 1032.91 1033.56
1006.86 1006.77 1007.14 1009.74 1011.87 1012.33 1012.29 1012.35 1012.99 1013.97 1014.74 1015.39 1016.70 1017.19 1018.11 1018.35 1019.10 1019.85 1020.04 1019.84 1020.41 1020.52 1019.93 1019.94 1020.05 1020.48 1020.54 1020.45 1020.38 1020.23 1019.84 1020.38 1021.16 1021.29 1020.95 1021.03 1021.74 1022.47 1023.07 1023.65 1024.31 1024.91 1025.53 1026.09 1026.83 1027.59 1028.33 1029.26 1030.41 1031.33 1032.17 1033.08 1033.92 1034.54
1007.86 1007.89 1008.25 1009.91 1011.98 1012.44 1012.15 1012.07 1013.03 1014.70 1015.55 1016.57 1017.60 1018.29 1018.45 1018.24 1019.17 1020.16 1020.22 1020.17 1020.43 1020.38 1019.91 1020.10 1020.50 1020.82 1020.86 1020.24 1020.51 1020.81 1020.52 1020.59 1021.09 1021.46 1021.74 1022.16 1022.77 1023.41 1023.98 1024.41 1024.91 1025.60 1026.24 1027.02 1027.86 1028.68 1029.60 1030.53 1031.59 1032.48 1033.23 1033.95 1034.54 1035.04
Wind_Speed
34 33 31 29 27 27 26 25 24 23 22 20 17 16 15 17 16 5 2 1 0 2 3 2 2 2 3 2 2 2 3 2 2 1 2 1 1 3 1 3 2 5 6 4 2 3 9 5 4 6 4 1 1 3
35 35 32 30 28 27 27 26 25 23 21 19 17 17 17 20 18 7 3 0 2 5 3 3 4 3 2 2 2 0 1 1 2 4 2 3 1 2 0 3 1 3 3 4 7 7 1 8 2 3 3 3 1 2
35 35 33 31 29 28 28 27 25 23 21 19 18 18 20 20 18 4 4 4 4 4 2 2 3 3 2 2 1 2 1 4 3 2 2 1 2 4 3 6 2 5 3 3 3 6 6 6 4 4 4 3 2 3
36 36 35 32 31 30 29 28 26 23 21 20 19 19 20 19 16 8 3 4 2 3 3 2 2 2 3 1 2 2 2 1 1 1 1 2 2 2 3 1 4 5 5 5 6 8 6 9 9 7 7 6 4 2
36 37 36 33 32 31 30 28 26 23 22 20 20 20 20 19 14 7 3 2 1 4 3 2 2 1 1 2 3 3 4 1 1 2 1 3 1 2 1 2 6 7 9 7 8 7 4 2 2 4 9 7 7 6
37 38 36 34 33 32 30 28 27 25 22 21 20 21 21 20 16 4 3 1 2 2 5 2 1 3 2 4 5 3 1 1 1 1 2 0 1 1 1 5 9 9 6 6 4 1 2 2 1 2 5 4 4 6
37 38 38 35 34 33 32 30 28 26 23 22 22 22 21 17 4 4 4 2 4 1 4 3 1 1 1 2 2 1 1 0 0 1 1 2 1 0 3 5 5 3 6 4 3 3 2 2 2 1 4 5 5 4
39 39 39 35 36 34 33 31 30 27 25 25 24 23 18 20 14 4 2 3 1 4 3 4 1 1 2 2 2 1 1 1 2 1 1 2 2 2 8 10 5 1 2 3 4 3 3 0 3 4 3 3 4 4
38 38 39 34 38 35 35 32 32 31 29 29 28 25 6 5 3 2 5 5 2 4 4 3 5 3 1 1 2 1 1 2 1 1 1 1 4 9 10 7 5 6 6 4 3 5 4 4 1 2 3 2 7 5
37 37 38 34 39 37 36 34 36 35 34 32 8 4 2 1 6 6 3 3 4 3 3 3 1 3 2 3 3 1 1 0 1 2 2 3 7 9 11 9 5 5 7 7 5 1 0 3 5 5 6 3 2 4
37 38 36 36 40 39 38 37 41 39 27 3 4 4 1 1 2 2 2 3 1 2 2 1 2 5 2 4 3 1 2 1 2 5 3 4 6 6 3 2 2 3 4 7 3 2 3 5 7 6 5 4 3 5
38 37 35 35 41 42 41 42 44 14 6 8 12 7 3 2 3 6 2 1 2 7 1 5 3 3 1 1 5 2 3 3 4 1 4 5 8 6 2 3 1 3 3 3 2 2 4 3 2 3 4 5 5 4
40 35 38 34 39 46 43 43 29 35 23 4 6 5 3 1 2 10 9 4 2 5 5 4 3 4 2 2 4 4 4 5 1 3 6 8 5 4 4 1 3 3 2 3 2 3 4 3 4 3 3 0 5 5
40 36 40 36 40 45 46 37 39 25 8 5 5 5 8 5 7 7 6 6 3 5 9 4 4 4 2 4 2 6 3 3 3 2 9 5 5 3 1 1 2 1 2 4 4 2 3 4 3 1 2 3 6 6
41 39 40 36 40 47 44 40 30 5 5 5 5 8 7 3 4 2 3 4 1 8 7 5 4 4 2 5 2 5 5 4 8 8 5 4 4 2 1 2 4 4 4 3 4 3 3 3 3 3 4 4 5 5
39 36 23 36 41 48 42 33 7 3 2 4 2 5 2 5 1 1 2 4 1 6 2 3 5 5 1 6 4 8 7 8 6 5 4 1 3 2 2 2 3 3 4 3 3 2 4 4 4 3 2 4 4 4
36 3 37 36 44 47 42 11 4 4 7 8 3 1 4 4 6 5 4 5 7 5 4 4 6 8 4 3 3 6 8 5 3 3 1 2 2 3 2 3 3 3 4 4 3 4 3 3 3 3 5 1 2 3
12 20 45 40 38 31 6 2 4 6 6 3 5 5 2 3 8 5 4 10 7 3 4 6 7 4 6 7 5 5 5 3 3 3 2 1 2 2 3 5 4 5 5 4 4 3 3 4 4 2 3 3 3 3
16 27 41 49 29 10 6 3 2 6 3 2 2 4 3 4 2 6 7 10 1 2 6 2 5 5 6 5 5 2 2 3 2 1 1 1 2 4 5 5 4 4 5 3 3 3 2 3 2 3 3 3 3 2
7 43 50 45 25 5 6 3 3 6 5 5 4 4 3 4 4 5 10 4 3 4 3 4 6 5 5 4 4 3 3 4 4 2 1 0 1 4 4 5 5 6 4 4 4 3 3 1 1 2 2 2 3 3
4 34 48 30 5 5 5 5 5 4 5 4 4 4 5 3 5 3 4 3 2 3 4 5 5 4 3 2 2 3 4 4 5 4 5 4 4 4 3 2 3 3 3 3 4 2 2 2 2 3 3 4 4 5
5 36 12 5 5 4 5 3 8 6 4 6 4 4 5 4 4 4 5 2 4 5 5 5 4 4 4 4 4 4 4 5 3 4 5 8 5 5 4 4 4 3 2 3 3 4 3 2 3 3 5 5 6 5
19 6 5 4 7 5 5 2 6 3 7 6 2 5 2 3 3 6 3 4 4 5 4 3 3 2 4 3 4 3 3 6 4 4 4 2 3 2 5 5 3 6 5 1 2 4 4 4 5 5 5 5 6 6
4 4 5 6 6 6 6 3 4 6 5 3 5 5 1 3 4 2 4 4 4 2 4 4 4 3 3 3 3 4 4 4 2 2 3 7 6 2 4 4 3 3 3 6 4 5 4 5 6 4 4 7 6 7
5 6 7 6 4 8 7 6 4 6 5 4 6 3 3 3 3 4 5 4 3 4 5 6 5 4 4 2 2 3 1 5 5 4 3 4 6 6 5 3 3 2 1 5 5 6 5 4 4 4 5 7 9 8
4 5 6 7 5 7 8 8 8 8 7 5 3 3 3 4 3 8 5 6 6 5 7 9 9 6 4 3 4 3 4 2 3 4 3 3 5 7 7 7 5 3 2 3 8 8 7 6 6 7 7 8 10 11
4 4 3 2 6 9 7 5 4 8 7 8 7 6 5 6 8 6 1 2 1 2 2 2 2 4 4 4 2 3 2 4 5 5 4 5 5 4 2 4 5 4 4 5 5 9 10 9 8 8 8 5 5 6
3 3 11 8 5 2 9 6 6 7 6 6 10 8 14 12 9 1 1 2 2 2 1 2 2 2 4 4 5 5 5 5 8 9 8 8 5 5 5 6 8 11 7 6 7 8 9 9 10 9 9 9 7 3
2 6 1 8 7 7 5 4 5 2 0 9 7 5 6 1 1 1 1 1 3 2 3 4 3 3 5 5 5 4 5 4 8 8 6 4 2 2 3 6 7 6 6 9 13 11 12 10 10 10 10 9 7 6
5 6 4 7 6 5 2 2 1 1 3 4 5 5 4 2 1 2 2 2 2 2 2 3 2 2 3 4 4 3 4 3 2 4 7 5 4 6 5 7 8 7 7 10 12 13 17 14 14 9 9 7 6 5
4 3 7 7 6 3 2 2 0 3 4 5 4 6 3 3 1 2 2 1 1 1 4 3 3 3 4 4 3 5 2 2 4 3 2 9 10 9 8 7 7 7 8 10 10 10 11 10 9 10 9 8 7 6
3 4 6 7 3 2 2 3 3 5 4 5 4 3 1 2 2 1 2 2 2 0 2 3 4 2 0 2 2 2 6 6 3 2 4 8 8 8 8 8 8 8 9 10 10 11 12 12 9 8 8 8 7 5
1 3 4 7 4 1 3 4 4 4 4 3 4 2 2 2 3 2 2 1 2 3 3 3 3 2 2 5 5 5 6 6 9 11 13 13 12 11 8 7 8 10 12 11 10 11 12 13 9 8 8 7 6 5
Wind_Direction
187 186 188 188 189 183 183 183 181 180 180 180 177 174 172 167 169 135 108 53 39 109 92 49 43 37 337 310 173 230 58 307 20 96 118 155 197 188 232 273 216 172 151 173 176 219 267 140 51 164 192 87 80 300
187 186 186 187 186 182 181 180 178 178 179 177 174 172 167 164 166 154 104 170 40 78 101 68 70 79 30 343 331 318 187 247 240 77 328 73 167 130 229 247 31 258 202 184 180 210 266 202 138 143 128 138 154 307
187 186 185 185 183 179 180 177 175 176 176 174 172 171 164 167 168 158 118 140 72 108 88 164 186 146 122 47 296 247 4 355 328 5 170 195 179 128 190 240 227 246 153 217 41 250 212 224 269 157 157 186 173 221
185 184 183 183 179 178 177 174 172 170 171 171 167 165 160 164 159 130 132 164 120 121 118 131 141 188 116 200 230 266 304 302 38 348 277 196 186 134 240 225 201 204 126 193 262 282 281 249 223 197 197 172 172 163
184 184 182 180 177 176 173 171 167 165 165 165 162 160 158 152 143 93 86 123 53 129 147 127 141 118 30 245 209 228 234 280 304 324 215 243 49 41 239 15 242 185 189 179 215 225 178 191 332 208 164 184 186 159
183 182 180 178 175 171 169 167 161 158 158 156 155 154 151 148 142 112 40 251 197 155 111 109 98 160 102 87 83 74 75 85 177 239 272 57 176 152 234 242 252 204 212 200 205 53 75 84 325 319 146 171 148 142
184 182 177 175 172 167 165 162 157 150 152 150 147 146 144 142 88 118 175 156 161 66 98 81 150 114 185 163 153 104 28 156 281 260 302 287 238 133 247 238 266 206 217 220 140 125 287 164 177 109 112 100 95 87
182 179 174 173 167 164 161 157 151 145 143 136 132 132 128 108 115 59 16 74 22 101 79 110 269 103 247 182 170 47 235 170 9 339 266 264 286 234 254 244 278 315 359 315 194 107 128 129 37 42 59 83 75 92
180 176 172 172 161 160 154 155 144 138 134 129 128 127 92 44 88 176 130 73 68 128 157 130 148 200 197 66 58 138 246 239 127 258 241 49 248 232 230 234 243 220 195 221 77 78 47 86 172 132 107 137 144 172
174 172 168 168 156 156 151 152 139 134 132 132 113 77 98 111 118 137 20 42 17 341 40 157 105 139 179 168 169 172 4 326 258 234 355 221 259 265 261 247 213 216 175 143 94 318 106 264 200 205 209 192 191 163
173 170 166 165 155 153 151 148 137 134 131 69 114 87 74 170 97 38 86 106 320 320 150 134 119 138 268 136 172 32 188 50 34 266 120 277 272 247 229 247 267 310 187 202 157 159 213 183 175 185 214 213 160 159
170 167 164 160 157 152 152 147 142 124 150 145 113 106 114 96 47 113 183 32 190 218 150 134 182 122 148 16 100 290 132 48 243 281 61 277 254 255 227 264 293 8 339 204 148 53 344 333 3 161 156 176 176 149
168 165 165 158 163 151 152 151 140 124 114 91 78 93 128 284 110 173 188 246 225 171 170 160 106 129 50 56 58 92 96 222 27 46 235 233 268 286 270 334 340 10 18 132 103 64 45 51 33 74 115 323 146 145
168 163 166 161 165 151 151 148 141 137 107 104 128 124 201 186 227 181 179 179 176 121 142 122 105 126 152 69 148 98 254 49 23 317 240 248 249 265 260 212 110 8 95 131 134 102 79 104 113 62 97 166 151 174
169 163 165 166 165 151 150 148 153 83 98 145 150 206 185 161 46 63 102 93 111 147 128 100 61 100 72 92 45 104 41 263 207 231 233 255 278 309 304 206 188 146 160 143 166 160 96 85 79 71 39 60 89 98
167 158 166 171 165 151 148 142 103 73 81 146 89 99 328 79 20 58 128 118 231 148 96 73 122 81 178 130 103 212 145 220 244 221 241 332 319 273 247 216 210 184 164 144 121 110 101 75 69 107 77 59 65 105
158 131 165 169 157 146 142 119 114 164 183 169 195 19 150 119 158 153 152 155 160 147 168 133 120 193 108 67 250 194 207 218 220 266 245 178 222 275 181 134 147 122 119 109 92 73 91 110 106 71 73 31 92 85
159 153 156 159 144 131 102 85 139 154 180 123 151 179 175 91 116 122 116 149 148 194 146 187 125 148 175 175 239 228 229 247 200 191 216 221 144 114 130 124 128 125 117 104 109 111 106 105 91 89 99 110 88 77
157 156 153 146 145 111 122 166 187 138 94 131 88 87 95 113 36 105 132 159 24 116 112 72 107 176 216 218 204 220 206 188 198 209 132 41 95 123 106 101 94 88 111 120 128 145 157 166 135 131 135 134 119 131
206 157 148 153 146 103 106 92 98 118 154 161 87 97 88 104 113 115 142 127 148 130 98 159 202 212 197 216 182 175 168 155 122 79 34 316 181 134 145 146 152 149 127 93 78 105 100 41 267 163 125 116 107 87
199 152 149 156 95 85 106 144 79 103 120 93 126 116 92 68 111 140 161 158 105 191 200 210 220 229 160 124 120 133 147 150 184 174 182 162 194 144 136 130 120 129 134 146 145 180 163 169 151 120 110 78 72 77
158 135 145 87 95 92 86 34 116 121 89 135 101 90 116 142 144 174 127 146 217 214 199 193 210 154 149 186 206 192 174 147 132 110 64 112 139 146 164 164 135 150 138 160 149 136 102 83 93 85 92 89 75 72
118 121 107 90 97 82 94 277 89 91 107 164 85 101 146 132 136 128 192 204 232 229 212 192 149 117 147 156 104 93 154 148 174 164 152 147 104 76 122 146 165 144 137 65 86 110 112 99 85 89 104 102 100 88
89 107 123 119 105 108 135 111 92 103 91 173 115 102 158 129 139 168 240 206 238 237 180 186 126 85 44 92 193 201 187 145 127 103 169 137 133 106 115 118 92 71 90 123 118 105 98 97 103 100 109 107 96 99
155 154 112 100 124 124 117 124 111 84 114 126 106 122 197 140 143 206 220 237 207 214 183 164 180 180 157 162 136 155 185 150 161 166 222 129 116 102 83 72 82 99 148 141 119 112 108 110 102 110 106 110 113 108
136 165 134 140 147 122 157 131 152 148 121 109 126 144 124 115 136 237 211 193 209 196 179 184 180 164 208 180 154 159 189 171 128 120 276 122 138 146 150 155 161 187 205 115 128 132 129 116 118 116 107 108 113 113
136 157 123 10 112 119 96 70 72 98 115 142 159 153 131 152 219 240 127 14 36 343 353 18 61 131 161 145 71 33 44 61 83 113 87 53 38 22 59 157 169 128 131 116 115 129 134 133 124 118 112 88 92 115
346 197 145 169 106 74 116 108 128 153 155 162 126 165 168 184 206 164 63 19 350 327 85 50 43 55 81 84 108 118 83 92 98 100 96 66 38 29 48 71 75 82 81 79 95 103 117 127 126 123 116 112 106 84
332 340 189 91 74 50 59 134 150 117 29 160 121 160 187 22 268 303 41 14 294 296 72 67 26 39 72 66 51 41 110 146 134 138 144 148 131 38 20 83 87 83 89 92 89 97 105 111 117 116 110 108 104 91
0 338 69 50 68 80 325 346 68 11 22 85 108 95 63 47 347 359 5 359 9 44 82 100 80 75 116 112 114 65 19 9 342 137 144 158 163 130 121 112 112 112 109 106 107 104 100 101 101 93 99 98 94 91
297 295 72 49 73 355 339 276 241 62 50 58 13 79 106 163 159 51 48 40 2 330 84 79 50 30 95 114 129 127 96 343 332 315 96 113 126 131 124 111 109 110 113 116 117 116 115 107 109 110 105 104 99 104
330 40 118 102 101 230 342 48 64 60 23 46 26 61 57 127 117 290 299 53 47 12 85 106 112 115 57 112 91 82 90 97 67 10 90 107 107 110 111 111 111 115 115 112 113 116 112 113 114 117 116 115 118 119
31 52 77 100 95 287 245 108 59 90 45 60 29 341 345 12 145 252 305 89 172 203 132 97 83 73 94 94 93 90 87 99 105 101 100 103 109 112 110 111 112 112 110 109 106 110 108 111 111 115 118 125 126 121